Glonass Operational
NORAD ID: 32395
Int'l Code: 2007-065C
Perigee: 19,096.3 km
Apogee: 19,177.6 km
Inclination: 65.3°
Period: 675.7 min
Semi major axis: 25,507.9 km
Launch date: December 25, 2007
Source: Commonwealth of Independent States (former USSR) (CIS)
SV:
Comments: Glonass is a radio satellite navigation system, the former Soviet and now Russian counterpart to the United States' GPS system and the European Union's embryonic Galileo positioning system. It is operated for the Russian government by the Russian Space Forces.
Two Line Element Set (TLE):
1 32395U 07065C 10244.32911690 -.00000012 00000-0 10000-3 0 5277
2 32395 065.2643 028.3839 0015925 000.7835 038.1543 02.13103261 20823
More details about COSMOS 2436 (GLONASS)